#Datum;Uhrzeit;WR;Pac;DaySum;Status;WR;Pac;DaySum;Status;Pdc1;Udc;Temp;WR;Pac;DaySum;Status;Pdc1;Udc;Temp;WR;Pac;DaySum;Status;Pdc1;Udc;Temp;WR;Pac;DaySum;Status;Pdc1;Pdc2;Udc1;Udc2;Temp;WR;Pac;DaySum;Status;Pdc1;Pdc2;Udc1;Udc2;Temp;WR;Pac;DaySum;Status;Pdc1;Udc;Temp;WR;Pac;DaySum;Status;Pdc1;Udc;Temp;WR;Pac;DaySum;Status;Pdc1;Udc;Temp
28.07.20;23:55:00;1;233;8800;0;2;0;26789;0;0;0;0;3;0;17898;0;0;0;0;4;0;25762;0;0;0;0;5;0;0;0;0;0;0;0;0;6;0;49473;0;0;0;0;0;0;7;0;34360;0;0;0;0;8;0;16892;0;0;0;0;9;0;19186;0;0;0;0
28.07.20;23:50:00;1;295;8779;0;2;0;26789;0;0;0;0;3;0;17898;0;0;0;0;4;0;25762;0;0;0;0;5;0;0;0;0;0;0;0;0;6;0;49473;0;0;0;0;0;0;7;0;34360;0;0;0;0;8;0;16892;0;0;0;0;9;0;19186;0;0;0;0
28.07.20;23:45:00;1;289;8755;0;2;0;26789;0;0;0;0;3;0;17898;0;0;0;0;4;0;25762;0;0;0;0;5;0;0;0;0;0;0;0;0;6;0;49473;0;0;0;0;0;0;7;0;34360;0;0;0;0;8;0;16892;0;0;0;0;9;0;19186;0;0;0;0
28.07.20;23:40:00;1;302;8731;0;2;0;26789;0;0;0;0;3;0;17898;0;0;0;0;4;0;25762;0;0;0;0;5;0;0;0;0;0;0;0;0;6;0;49473;0;0;0;0;0;0;7;0;34360;0;0;0;0;8;0;16892;0;0;0;0;9;0;19186;0;0;0;0
28.07.20;23:35:00;1;353;8704;0;2;0;26789;0;0;0;0;3;0;17898;0;0;0;0;4;0;25762;0;0;0;0;5;0;0;0;0;0;0;0;0;6;0;49473;0;0;0;0;0;0;7;0;34360;0;0;0;0;8;0;16892;0;0;0;0;9;0;19186;0;0;0;0
28.07.20;23:30:00;1;319;8676;0;2;0;26789;0;0;0;0;3;0;17898;0;0;0;0;4;0;25762;0;0;0;0;5;0;0;0;0;0;0;0;0;6;0;49473;0;0;0;0;0;0;7;0;34360;0;0;0;0;8;0;16892;0;0;0;0;9;0;19186;0;0;0;0
28.07.20;23:25:00;1;388;8649;0;2;0;26789;0;0;0;0;3;0;17898;0;0;0;0;4;0;25762;0;0;0;0;5;0;0;0;0;0;0;0;0;6;0;49473;0;0;0;0;0;0;7;0;34360;0;0;0;0;8;0;16892;0;0;0;0;9;0;19186;0;0;0;0
28.07.20;23:20:00;1;279;8617;0;2;0;26789;0;0;0;0;3;0;17898;0;0;0;0;4;0;25762;0;0;0;0;5;0;0;0;0;0;0;0;0;6;0;49473;0;0;0;0;0;0;7;0;34360;0;0;0;0;8;0;16892;0;0;0;0;9;0;19186;0;0;0;0
28.07.20;23:15:00;1;276;8594;0;2;0;26789;0;0;0;0;3;0;17898;0;0;0;0;4;0;25762;0;0;0;0;5;0;0;0;0;0;0;0;0;6;0;49473;0;0;0;0;0;0;7;0;34360;0;0;0;0;8;0;16892;0;0;0;0;9;0;19186;0;0;0;0
28.07.20;23:10:00;1;262;8572;0;2;0;26789;0;0;0;0;3;0;17898;0;0;0;0;4;0;25762;0;0;0;0;5;0;0;0;0;0;0;0;0;6;0;49473;0;0;0;0;0;0;7;0;34360;0;0;0;0;8;0;16892;0;0;0;0;9;0;19186;0;0;0;0
28.07.20;23:05:00;1;265;8550;0;2;0;26789;0;0;0;0;3;0;17898;0;0;0;0;4;0;25762;0;0;0;0;5;0;0;0;0;0;0;0;0;6;0;49473;0;0;0;0;0;0;7;0;34360;0;0;0;0;8;0;16892;0;0;0;0;9;0;19186;0;0;0;0
28.07.20;23:00:00;1;335;8528;0;2;0;26789;0;0;0;0;3;0;17898;0;0;0;0;4;0;25762;0;0;0;0;5;0;0;0;0;0;0;0;0;6;0;49473;0;0;0;0;0;0;7;0;34360;0;0;0;0;8;0;16892;0;0;0;0;9;0;19186;0;0;0;0
28.07.20;22:55:00;1;343;8499;0;2;0;26789;0;0;0;0;3;0;17898;0;0;0;0;4;0;25762;0;0;0;0;5;0;0;0;0;0;0;0;0;6;0;49473;2;0;0;0;0;0;7;0;34360;0;0;0;0;8;0;16892;0;0;0;0;9;0;19186;0;0;0;0
28.07.20;22:50:00;1;321;8470;0;2;0;26789;0;0;0;0;3;0;17898;0;0;0;0;4;0;25762;0;0;0;0;5;0;0;0;0;0;0;0;0;6;0;49473;2;0;0;0;0;0;7;0;34360;0;0;0;0;8;0;16892;0;0;0;0;9;0;19186;0;0;0;0
28.07.20;22:45:00;1;332;8444;0;2;0;26789;0;0;0;0;3;0;17898;0;0;0;0;4;0;25762;0;0;0;0;5;0;0;0;0;0;0;0;0;6;0;49473;2;0;0;0;0;0;7;0;34360;0;0;0;0;8;0;16892;0;0;0;0;9;0;19186;0;0;0;0
28.07.20;22:40:00;1;378;8415;0;2;0;26789;0;0;0;0;3;0;17898;0;0;0;0;4;0;25762;0;0;0;0;5;0;0;0;0;0;0;0;0;6;0;49473;2;0;0;0;0;0;7;0;34360;0;0;0;0;8;0;16892;0;0;0;0;9;0;19186;0;0;0;0
28.07.20;22:35:00;1;380;8384;0;2;0;26789;0;0;0;0;3;0;17898;0;0;0;0;4;0;25762;0;0;0;0;5;0;0;0;0;0;0;0;0;6;0;49473;2;0;0;0;0;0;7;0;34360;0;0;0;0;8;0;16892;0;0;0;0;9;0;19186;0;0;0;0
28.07.20;22:30:00;1;340;8351;0;2;0;26789;0;0;0;0;3;0;17898;0;0;0;0;4;0;25762;0;0;0;0;5;0;0;0;0;0;0;0;0;6;0;49473;2;0;0;0;0;0;7;0;34360;0;0;0;0;8;0;16892;0;0;0;0;9;0;19186;0;0;0;0
28.07.20;22:25:00;1;302;8324;0;2;0;26789;0;0;0;0;3;0;17898;0;0;0;0;4;0;25762;0;0;0;0;5;0;0;0;0;0;0;0;0;6;0;49473;2;0;0;0;0;0;7;0;34360;0;0;0;0;8;0;16892;0;0;0;0;9;0;19186;0;0;0;0
28.07.20;22:20:00;1;319;8298;0;2;0;26789;0;0;0;0;3;0;17898;0;0;0;0;4;0;25762;0;0;0;0;5;0;0;0;0;0;0;0;0;6;0;49473;2;0;0;0;0;0;7;0;34360;0;0;0;0;8;0;16892;0;0;0;0;9;0;19186;0;0;0;0
28.07.20;22:15:00;1;377;8271;0;2;0;26789;0;0;0;0;3;0;17898;0;0;0;0;4;0;25762;0;0;0;0;5;0;0;0;0;0;0;0;0;6;0;49473;2;0;0;0;0;0;7;0;34360;0;0;0;0;8;0;16892;0;0;0;0;9;0;19186;0;0;0;0
28.07.20;22:10:00;1;395;8240;0;2;0;26789;0;0;0;0;3;0;17898;0;0;0;0;4;0;25762;0;0;0;0;5;0;0;0;0;0;0;0;0;6;0;49473;2;0;0;0;0;0;7;0;34360;0;0;0;0;8;0;16892;0;0;0;0;9;0;19186;0;0;0;0
28.07.20;22:05:00;1;505;8203;0;2;0;26789;0;0;0;0;3;0;17898;0;0;0;0;4;0;25762;0;0;0;0;5;0;0;0;0;0;0;0;0;6;0;49473;2;0;0;0;0;0;7;0;34360;0;0;0;0;8;0;16892;0;0;0;0;9;0;19186;0;0;0;0
28.07.20;22:00:00;1;534;8161;0;2;0;26789;0;0;0;0;3;0;17898;0;0;0;0;4;0;25762;0;0;0;0;5;0;0;0;0;0;0;0;0;6;0;49473;2;0;0;0;0;0;7;0;34360;0;0;0;0;8;0;16892;0;0;0;0;9;0;19186;0;0;0;0
28.07.20;21:55:00;1;420;8118;0;2;0;26789;0;0;0;0;3;0;17898;0;0;0;0;4;0;25762;0;0;0;0;5;0;0;0;0;0;0;0;0;6;0;49473;2;0;0;0;0;0;7;0;34360;0;0;0;0;8;0;16892;0;0;0;0;9;0;19186;0;0;0;0
28.07.20;21:50:00;1;447;8082;0;2;0;26789;0;0;0;0;3;0;17898;0;0;0;0;4;0;25762;0;0;0;0;5;0;0;0;0;0;0;0;0;6;0;49473;2;0;0;0;0;0;7;0;34360;0;0;0;0;8;0;16892;0;0;0;0;9;0;19186;0;0;0;0
28.07.20;21:45:00;1;491;8044;0;2;0;26789;0;0;0;0;3;0;17898;0;0;0;0;4;0;25762;0;0;0;0;5;0;0;0;0;0;0;0;0;6;0;49473;2;0;0;0;0;0;7;0;34360;0;0;0;0;8;0;16892;0;0;0;0;9;0;19186;0;0;0;0
28.07.20;21:40:00;1;526;8002;0;2;0;26789;0;0;0;0;3;0;17898;0;0;0;0;4;0;25762;0;0;0;0;5;0;0;0;0;0;0;0;0;6;0;49473;2;0;0;0;0;0;7;0;34360;0;0;0;0;8;0;16892;0;0;0;0;9;0;19186;0;0;0;0
28.07.20;21:35:00;1;438;7959;0;2;0;26789;0;0;0;0;3;0;17898;0;0;0;0;4;0;25762;0;0;0;0;5;0;0;0;0;0;0;0;0;6;0;49473;2;0;0;0;0;0;7;0;34360;0;0;0;0;8;0;16892;0;0;0;0;9;0;19186;0;0;0;0
28.07.20;21:30:00;1;394;7923;0;2;0;26789;0;0;0;0;3;0;17898;0;0;0;0;4;0;25762;0;0;0;0;5;0;0;0;0;0;0;0;0;6;0;49473;2;0;0;0;0;0;7;0;34360;0;0;0;0;8;0;16892;0;0;0;0;9;0;19186;0;0;0;0
28.07.20;21:25:00;1;465;7889;0;2;0;26789;0;0;0;0;3;0;17898;0;0;0;0;4;0;25762;0;0;0;0;5;0;0;0;0;0;0;0;0;6;0;49473;2;0;0;0;0;0;7;0;34360;0;0;0;0;8;0;16892;0;0;0;0;9;0;19186;0;0;0;0
28.07.20;21:20:00;1;621;7850;0;2;0;26789;0;0;0;0;3;0;17898;0;0;0;0;4;0;25762;0;0;0;0;5;0;0;0;0;0;0;0;0;6;0;49473;2;0;0;0;0;0;7;0;34360;0;0;0;0;8;0;16892;0;0;0;0;9;0;19186;0;0;0;0
28.07.20;21:15:00;1;476;7807;0;2;0;26789;0;0;35;4;3;0;17898;0;0;116;14;4;0;25762;0;0;27;20;5;0;0;0;0;0;0;0;0;6;0;49473;2;0;0;0;0;0;7;0;34360;0;0;0;0;8;0;16892;0;0;0;0;9;0;19186;0;0;0;0
28.07.20;21:10:00;1;363;7769;0;2;0;26789;6;0;313;31;3;0;17898;6;3;364;33;4;0;25762;2;0;135;35;5;0;0;0;0;0;0;0;0;6;0;49473;2;4;3;319;139;33;7;0;34360;0;0;198;22;8;0;16892;0;0;200;21;9;0;19186;0;0;210;20
28.07.20;21:05:00;1;413;7738;0;2;0;26789;6;0;348;31;3;0;17898;6;2;425;33;4;0;25762;1;0;189;35;5;0;0;0;0;0;0;0;0;6;0;49473;23;4;4;237;445;40;7;0;34360;6;0;368;33;8;0;16892;6;0;369;32;9;0;19186;6;0;402;30
28.07.20;21:00:00;1;438;7704;0;2;0;26789;6;0;337;31;3;0;17898;6;2;411;33;4;0;25762;1;0;165;36;5;0;0;0;0;0;0;0;0;6;0;49473;23;4;4;180;463;41;7;0;34360;6;0;319;33;8;0;16892;6;0;320;32;9;0;19186;6;0;340;30
28.07.20;20:55:00;1;304;7669;0;2;0;26789;6;0;373;32;3;1;17898;6;4;456;34;4;0;25762;1;0;211;36;5;0;0;0;0;0;0;0;0;6;0;49473;23;4;4;330;529;41;7;0;34360;6;1;403;34;8;0;16892;6;0;398;32;9;0;19186;6;5;415;30
28.07.20;20:50:00;1;408;7643;0;2;0;26789;6;0;379;32;3;2;17898;4;4;463;34;4;0;25762;3;0;210;36;5;0;0;0;0;0;0;0;0;6;0;49473;8;3;3;420;538;41;7;0;34360;6;4;418;34;8;0;16892;6;1;421;32;9;0;19186;6;0;318;20
28.07.20;20:45:00;1;379;7608;0;2;0;26789;6;0;385;33;3;1;17898;6;6;471;34;4;0;25762;3;0;200;37;5;0;0;0;0;0;0;0;0;6;0;49473;23;2;6;502;545;42;7;0;34360;6;0;445;34;8;0;16892;4;3;418;33;9;4;19186;6;5;449;31
28.07.20;20:40:00;1;351;7576;0;2;33;26789;6;64;365;33;3;4;17897;6;12;483;34;4;3;25762;3;3;199;37;5;0;0;0;0;0;0;0;0;6;56;49473;4;44;27;419;214;43;7;1;34360;3;8;441;34;8;2;16892;3;6;419;33;9;1;19185;6;6;483;31
28.07.20;20:35:00;1;333;7547;0;2;101;26786;4;137;355;34;3;38;17897;6;65;477;35;4;26;25762;3;27;197;37;5;0;0;0;0;0;0;0;0;6;75;49471;4;47;28;419;214;43;7;46;34360;4;78;357;34;8;2;16892;6;13;436;33;9;1;19185;4;6;486;32
28.07.20;20:30:00;1;335;7520;0;2;165;26778;4;204;354;34;3;96;17894;4;136;453;36;4;40;25760;3;42;197;37;5;0;0;0;0;0;0;0;0;6;94;49465;4;76;45;420;214;43;7;65;34356;4;102;406;34;8;5;16891;6;14;442;33;9;11;19185;3;19;486;32
28.07.20;20:25:00;1;375;7496;0;2;215;26764;4;258;361;35;3;129;17886;4;168;452;36;4;66;25756;3;69;198;37;5;0;0;0;0;0;0;0;0;6;107;49457;4;57;34;419;214;43;7;75;34350;4;104;318;28;8;9;16891;6;19;447;34;9;8;19184;6;12;507;32
28.07.20;20:20:00;1;376;7464;0;2;208;26747;4;252;358;35;3;124;17876;4;161;437;36;4;79;25751;3;83;199;37;5;0;0;0;0;0;0;0;0;6;121;49448;4;59;33;419;215;43;7;92;34341;0;121;311;29;8;32;16890;6;54;377;34;9;29;19183;6;43;491;32
28.07.20;20:15:00;1;318;7436;0;2;292;26729;4;336;361;35;3;171;17865;4;212;436;36;4;101;25744;5;105;204;38;5;0;0;0;0;0;0;0;0;6;141;49437;4;94;54;419;214;43;7;135;34334;4;172;373;35;8;49;16888;4;75;358;34;9;67;19181;4;98;437;33
28.07.20;20:10:00;1;313;7410;0;2;374;26705;4;421;366;36;3;214;17851;4;258;444;37;4;129;25736;5;134;208;38;5;0;0;0;0;0;0;0;0;6;191;49425;4;111;94;419;322;43;7;156;34322;4;199;397;35;8;37;16884;4;62;254;22;9;76;19175;4;109;454;33
28.07.20;20:05:00;1;455;7384;0;2;547;26674;4;602;373;36;3;312;17833;4;359;429;37;4;235;25725;5;245;215;38;5;0;0;0;0;0;0;0;0;6;382;49408;4;180;199;517;509;43;7;286;34309;4;332;439;35;8;119;16879;4;161;410;34;9;142;19169;4;178;466;33
28.07.20;20:00:00;1;384;7354;0;2;593;26629;4;649;370;36;3;338;17807;4;385;430;37;4;262;25706;5;273;215;38;5;0;0;0;0;0;0;0;0;6;408;49375;4;218;229;517;511;43;7;323;34286;4;364;437;35;8;138;16870;4;177;415;34;9;156;19157;4;191;459;34
28.07.20;19:55:00;1;333;7321;0;2;689;26579;4;751;375;36;3;387;17779;4;434;432;37;4;332;25684;5;346;218;38;5;0;0;0;0;0;0;0;0;6;492;49341;4;265;283;536;507;43;7;402;34259;4;448;430;35;8;170;16858;4;209;411;34;9;199;19144;4;234;477;34
28.07.20;19:50:00;1;329;7293;0;2;912;26522;4;980;381;37;3;509;17747;4;561;429;37;4;383;25656;5;399;223;38;5;0;0;0;0;0;0;0;0;6;536;49300;4;270;273;532;514;43;7;480;34226;4;531;442;35;8;205;16844;4;248;444;34;9;228;19128;4;270;477;34
28.07.20;19:45:00;1;338;7265;0;2;952;26446;4;1021;385;37;3;528;17705;4;581;423;37;4;379;25624;5;395;223;38;5;0;0;0;0;0;0;0;0;6;507;49254;4;241;251;540;514;43;7;469;34186;4;510;446;35;8;200;16827;4;242;443;34;9;216;19109;4;259;479;34
28.07.20;19:40:00;1;329;7237;0;2;1076;26367;4;1150;385;36;3;586;17661;4;640;425;37;4;360;25593;5;374;229;38;5;0;0;0;0;0;0;0;0;6;464;49212;4;221;234;517;511;44;7;450;34146;4;493;454;35;8;201;16810;4;245;446;34;9;197;19091;4;234;477;34
28.07.20;19:35:00;1;276;7209;0;2;1195;26276;4;1274;386;35;3;606;17612;4;660;419;37;4;367;25563;5;382;234;38;5;0;0;0;0;0;0;0;0;6;500;49174;4;249;264;534;518;44;7;485;34109;4;531;439;35;8;271;16793;4;313;435;34;9;164;19074;4;198;391;28
28.07.20;19:30:00;1;313;7185;0;2;455;26177;4;506;363;35;3;279;17561;4;330;473;37;4;336;25533;5;349;216;38;5;0;0;0;0;0;0;0;0;6;542;49132;4;253;269;537;522;44;7;413;34069;4;457;411;35;8;196;16771;4;233;430;34;9;174;19058;4;205;387;28
28.07.20;19:25:00;1;295;7160;0;2;501;26139;4;551;366;35;3;312;17538;4;360;469;37;4;384;25504;5;400;219;38;5;0;0;0;0;0;0;0;0;6;616;49086;4;306;321;522;515;44;7;460;34034;4;509;433;35;8;210;16755;4;249;425;34;9;240;19041;4;282;485;34
28.07.20;19:20:00;1;304;7135;0;2;521;26098;4;570;365;35;3;323;17512;4;373;469;37;4;404;25472;5;420;219;39;5;0;0;0;0;0;0;0;0;6;648;49035;4;314;337;539;512;44;7;503;33996;4;550;430;35;8;230;16737;4;275;431;34;9;266;19021;4;308;478;35
28.07.20;19:15:00;1;308;7109;0;2;497;26054;4;549;370;35;3;312;17485;4;360;461;37;4;401;25439;5;418;223;39;5;0;0;0;0;0;0;0;0;6;661;48980;4;330;348;538;524;44;7;523;33954;4;578;439;36;8;243;16718;4;280;445;34;9;233;18998;4;269;402;29
28.07.20;19:10:00;1;317;7084;0;2;378;26012;4;426;362;35;3;231;17459;4;277;461;37;4;302;25405;5;315;216;39;5;0;0;0;0;0;0;0;0;6;535;48925;4;266;268;530;517;44;7;406;33911;4;450;427;36;8;181;16698;4;219;426;34;9;214;18975;4;254;473;35
28.07.20;19:05:00;1;373;7055;0;2;401;25981;4;453;370;36;3;249;17440;4;295;465;37;4;332;25380;5;345;216;39;5;0;0;0;0;0;0;0;0;6;582;48881;4;288;304;525;514;44;7;424;33877;4;466;442;36;8;188;16683;4;232;424;34;9;225;18957;4;265;471;35
28.07.20;19:00:00;1;260;7025;0;2;412;25948;4;462;358;36;3;254;17419;4;299;457;37;4;344;25352;5;359;217;39;5;0;0;0;0;0;0;0;0;6;612;48832;4;308;316;524;521;44;7;445;33842;4;489;433;36;8;202;16667;4;244;417;34;9;236;18939;4;278;483;35
28.07.20;18:55:00;1;241;7004;0;2;402;25913;4;450;366;36;3;246;17398;4;294;468;37;4;344;25324;5;358;217;39;5;0;0;0;0;0;0;0;0;6;656;48780;4;328;340;535;516;44;7;448;33804;4;501;431;36;8;205;16650;4;243;431;34;9;242;18919;4;284;475;35
28.07.20;18:50:00;1;341;6984;0;2;654;25879;4;709;368;36;3;404;17377;4;455;490;38;4;558;25295;5;581;220;39;5;0;0;0;0;0;0;0;0;6;989;48725;4;497;507;547;524;44;7;668;33767;4;720;437;36;8;306;16633;4;352;445;34;9;290;18899;4;327;383;28
28.07.20;18:45:00;1;825;6947;0;2;877;25826;4;939;373;36;3;550;17344;4;612;480;38;4;745;25249;5;776;224;39;5;0;0;0;0;0;0;0;0;6;1153;48640;4;560;574;544;527;44;7;913;33712;4;976;431;36;8;444;16608;4;495;443;34;9;346;18860;0;378;328;23
28.07.20;18:40:00;1;882;6877;0;2;416;25754;4;466;369;36;3;261;17298;4;306;462;37;4;347;25187;5;361;214;39;5;0;0;0;0;0;0;0;0;6;587;48545;4;296;304;525;503;44;7;513;33636;4;565;422;36;8;234;16571;4;280;449;34;9;287;18829;4;329;468;35
28.07.20;18:35:00;1;823;6802;0;2;302;25720;4;348;360;36;3;185;17277;4;227;457;38;4;243;25159;5;254;213;39;5;0;0;0;0;0;0;0;0;6;486;48500;4;239;253;521;511;44;7;295;33594;4;338;419;36;8;130;16552;4;164;425;34;9;154;18805;4;186;462;35
28.07.20;18:30:00;1;766;6735;0;2;330;25695;4;375;363;36;3;204;17262;4;249;457;38;4;271;25139;5;283;217;40;5;0;0;0;0;0;0;0;0;6;506;48459;4;237;256;511;517;45;7;338;33570;4;377;433;37;8;143;16541;4;182;420;34;9;181;18793;4;218;459;36
28.07.20;18:25:00;1;947;6671;0;2;264;25668;4;309;359;37;3;160;17245;4;203;437;38;4;225;25117;5;234;210;40;5;0;0;0;0;0;0;0;0;6;469;48418;4;238;256;521;509;45;7;306;33542;4;353;420;37;8;136;16530;4;168;387;35;9;162;18778;4;199;455;36
28.07.20;18:20:00;1;311;6596;0;2;318;25646;4;366;364;37;3;196;17232;4;241;458;38;4;275;25098;5;286;215;40;5;0;0;0;0;0;0;0;0;6;555;48379;4;283;295;521;511;45;7;411;33517;4;450;433;37;8;181;16518;4;223;424;35;9;214;18764;4;252;469;36
28.07.20;18:15:00;1;269;6571;0;2;312;25620;4;357;358;37;3;190;17216;4;234;460;39;4;253;25076;5;264;210;40;5;0;0;0;0;0;0;0;0;6;514;48333;4;257;269;522;510;45;7;352;33483;4;401;423;37;8;155;16504;4;192;408;35;9;126;18747;4;151;310;24
28.07.20;18:10:00;1;303;6549;0;2;374;25594;4;420;359;38;3;227;17200;4;273;445;39;4;306;25055;5;318;211;41;5;0;0;0;0;0;0;0;0;6;621;48290;4;311;328;523;506;45;7;416;33454;4;463;425;37;8;183;16491;4;226;416;35;9;218;18731;4;261;471;37
28.07.20;18:05:00;1;334;6522;0;2;724;25562;4;786;368;39;3;454;17181;4;508;476;40;4;625;25029;5;651;222;41;5;0;0;0;0;0;0;0;0;6;1150;48235;4;567;586;547;524;45;7;795;33419;4;858;428;37;8;378;16475;4;419;435;35;9;423;18713;4;475;479;37
28.07.20;18:00:00;1;334;6495;0;2;1005;25504;4;1078;376;39;3;636;17144;4;699;490;40;4;864;24978;5;899;225;41;5;0;0;0;0;0;0;0;0;6;1444;48137;4;725;719;551;531;45;7;924;33354;4;988;374;31;8;533;16445;4;582;447;35;9;603;18679;4;658;496;38
28.07.20;17:55:00;1;346;6467;0;2;927;25419;4;994;377;39;3;587;17090;4;645;492;40;4;777;24905;5;810;224;41;5;0;0;0;0;0;0;0;0;6;1306;48016;4;659;662;550;527;45;7;937;33261;4;998;373;31;8;578;16400;4;630;444;35;9;601;18628;4;660;501;38
28.07.20;17:50:00;1;359;6437;0;2;952;25342;4;1021;375;39;3;595;17041;4;655;485;40;4;778;24840;5;810;224;41;5;0;0;0;0;0;0;0;0;6;1270;47908;4;650;649;551;530;45;7;1017;33166;4;1087;442;38;8;489;16352;4;537;446;35;9;548;18577;4;601;494;38
28.07.20;17:45:00;1;259;6411;0;2;772;25261;4;836;371;39;3;491;16991;4;545;466;40;4;660;24775;5;688;225;41;5;0;0;0;0;0;0;0;0;6;1105;47799;4;558;567;537;527;45;7;955;33079;4;1022;438;38;8;462;16310;4;510;439;35;9;519;18531;4;572;489;38
28.07.20;17:40:00;1;237;6388;0;2;559;25194;4;615;369;39;3;349;16948;4;398;453;40;4;472;24718;5;491;218;42;5;0;0;0;0;0;0;0;0;6;875;47709;4;438;454;530;516;45;7;706;32997;4;763;429;38;8;276;16270;4;314;359;29;9;374;18487;4;422;477;38
28.07.20;17:35:00;1;297;6368;0;2;576;25148;4;631;366;39;3;358;16919;4;410;468;40;4;494;24678;5;514;216;42;5;0;0;0;0;0;0;0;0;6;941;47637;4;477;487;534;518;45;7;708;32938;4;760;436;38;8;323;16243;4;368;414;35;9;368;18455;4;415;475;38
28.07.20;17:30:00;1;344;6342;0;2;692;25101;4;752;366;40;3;435;16890;4;488;470;41;4;592;24638;5;616;220;42;5;0;0;0;0;0;0;0;0;6;1089;47558;4;553;560;539;524;46;7;789;32880;4;852;432;38;8;373;16216;4;417;416;36;9;424;18425;4;471;484;39
28.07.20;17:25:00;1;358;6314;0;2;746;25042;4;810;368;40;3;475;16853;4;531;473;41;4;640;24588;5;666;225;42;5;0;0;0;0;0;0;0;0;6;1112;47465;4;557;566;540;521;46;7;848;32814;4;908;435;39;8;336;16185;4;373;368;30;9;457;18389;4;509;478;39
28.07.20;17:20:00;1;413;6283;0;2;651;24979;4;711;366;41;3;410;16813;4;462;464;41;4;551;24534;5;573;223;42;5;0;0;0;0;0;0;0;0;6;1002;47373;4;499;503;537;517;46;7;705;32744;4;765;434;39;8;328;16151;4;374;428;36;9;378;18351;4;426;478;39
28.07.20;17:15:00;1;1078;6251;0;2;916;24925;4;990;379;41;3;580;16779;4;639;489;42;4;795;24488;5;828;223;43;5;0;0;0;0;0;0;0;0;6;1377;47287;4;712;712;544;531;46;7;957;32684;4;1028;440;39;8;452;16123;4;503;437;36;9;511;18319;4;567;486;40
28.07.20;17:10:00;1;1817;6162;0;2;1275;24850;4;1358;378;41;3;785;16732;4;851;471;42;4;1055;24423;5;1098;224;43;5;0;0;0;0;0;0;0;0;6;1673;47171;4;862;867;544;523;46;7;1173;32589;0;1244;364;32;8;469;16087;4;506;285;24;9;775;18278;4;840;493;40
28.07.20;17:05:00;1;1598;6066;0;2;805;24747;4;867;363;41;3;513;16668;4;568;474;42;4;697;24337;5;726;222;43;5;0;0;0;0;0;0;0;0;6;1244;47032;4;634;632;539;518;46;7;1004;32494;4;1074;439;39;8;491;16025;4;535;433;36;9;548;18214;4;605;487;40
28.07.20;17:00:00;1;3938;5912;0;2;730;24680;4;791;362;42;3;461;16625;4;518;477;42;4;633;24278;5;659;219;43;5;0;0;0;0;0;0;0;0;6;1139;46929;4;561;563;543;517;46;7;876;32409;4;935;427;40;8;414;15984;4;465;438;36;9;474;18168;4;526;480;40
28.07.20;16:55:00;1;978;5583;0;2;558;24619;4;614;361;42;3;353;16587;4;403;454;42;4;481;24226;5;501;216;43;5;0;0;0;0;0;0;0;0;6;900;46837;4;459;462;525;514;46;7;546;32336;4;595;354;33;8;303;15950;4;349;441;36;9;228;18114;0;260;312;27
28.07.20;16:50:00;1;314;5509;0;2;526;24573;4;581;361;43;3;329;16557;4;379;450;43;4;458;24186;5;477;215;44;5;0;0;0;0;0;0;0;0;6;901;46762;4;476;485;521;512;46;7;612;32281;4;669;421;40;8;286;15924;4;323;436;36;9;329;18097;4;374;476;41
28.07.20;16:45:00;1;319;5482;0;2;945;24528;4;1018;372;44;3;599;16529;4;659;470;43;4;828;24147;5;863;218;44;5;0;0;0;0;0;0;0;0;6;1494;46685;4;772;756;538;515;47;7;909;32221;0;975;371;35;8;487;15901;4;536;430;37;9;545;18070;4;600;477;41
28.07.20;16:40:00;1;248;5456;0;2;1330;24450;4;1415;372;44;3;872;16480;4;939;473;44;4;1199;24079;5;1249;222;44;5;0;0;0;0;0;0;0;0;6;1973;46557;4;1014;997;541;518;47;7;1606;32148;4;1700;443;41;8;530;15844;0;568;282;24;9;832;18024;4;897;476;42
28.07.20;16:35:00;1;222;5435;0;2;812;24342;4;879;363;44;3;516;16409;4;574;473;44;4;695;23982;5;724;218;44;5;0;0;0;0;0;0;0;0;6;1238;46399;4;632;631;534;511;47;7;929;32018;4;998;419;41;8;385;15801;4;422;360;30;9;516;17957;4;568;476;42
28.07.20;16:30:00;1;278;5417;0;2;1032;24273;4;1108;370;45;3;655;16365;4;717;470;44;4;893;23922;5;929;219;45;5;0;0;0;0;0;0;0;0;6;1590;46296;4;805;803;541;522;47;7;1067;31939;4;1137;438;42;8;511;15762;4;559;430;37;9;568;17913;4;626;486;42
28.07.20;16:25:00;1;239;5393;0;2;1083;24185;4;1160;370;46;3;700;16310;4;762;466;45;4;942;23847;5;981;223;45;5;0;0;0;0;0;0;0;0;6;1568;46159;4;801;799;535;519;47;7;1175;31849;4;1252;438;42;8;573;15718;4;622;423;37;9;644;17865;4;706;480;43
28.07.20;16:20:00;1;275;5373;0;2;1014;24094;4;1091;369;46;3;646;16250;4;710;473;45;4;879;23767;5;915;222;45;5;0;0;0;0;0;0;0;0;6;1532;46028;4;783;773;539;516;47;7;1042;31749;4;1114;443;43;8;502;15669;4;555;435;38;9;567;17810;4;623;477;43
28.07.20;16:15:00;1;236;5350;0;2;1120;24008;4;1195;374;47;3;715;16196;4;784;477;46;4;973;23693;5;1013;220;45;5;0;0;0;0;0;0;0;0;6;1657;45898;4;844;841;540;518;48;7;1143;31662;4;1217;436;43;8;466;15627;4;507;362;31;9;627;17763;4;684;477;44
28.07.20;16:10:00;1;283;5330;0;2;991;23915;4;1064;371;48;3;637;16136;4;698;466;46;4;865;23612;5;902;222;46;5;0;0;0;0;0;0;0;0;6;1473;45760;4;748;756;531;516;48;7;1101;31566;4;1168;433;44;8;534;15580;4;589;432;38;9;485;17710;4;532;387;35
28.07.20;16:05:00;1;368;5306;0;2;700;23832;4;764;355;49;3;447;16083;4;501;457;47;4;618;23539;5;644;218;46;5;0;0;0;0;0;0;0;0;6;1138;45640;4;572;585;526;506;48;7;697;31474;4;755;345;37;8;395;15535;4;444;407;38;9;459;17659;4;510;467;45
28.07.20;16:00:00;1;349;5276;0;2;952;23773;4;1027;358;50;3;599;16045;4;661;454;47;4;838;23487;5;873;219;46;5;0;0;0;0;0;0;0;0;6;1522;45545;4;771;767;528;515;49;7;1073;31402;4;1146;435;45;8;513;15502;4;563;421;39;9;571;17621;4;629;466;46
28.07.20;15:55:00;1;284;5247;0;2;1055;23692;4;1135;362;51;3;704;15994;4;769;467;48;4;1048;23416;5;1092;218;47;5;0;0;0;0;0;0;0;0;6;1856;45402;4;942;944;525;507;49;7;1326;31311;4;1413;433;46;8;612;15459;4;670;431;39;9;689;17572;4;751;467;47
28.07.20;15:50:00;1;224;5223;0;2;1413;23602;4;1508;359;53;3;887;15933;4;960;468;49;4;1227;23321;5;1278;220;47;5;0;0;0;0;0;0;0;0;6;2150;45263;4;1098;1068;538;514;49;7;1596;31194;4;1696;433;47;8;762;15407;4;834;422;39;9;861;17513;4;932;479;48
28.07.20;15:45:00;1;243;5204;0;2;1749;23486;4;1861;367;54;3;1068;15860;4;1151;470;50;4;1281;23221;5;1334;221;47;5;0;0;0;0;0;0;0;0;6;2177;45084;4;1104;1078;535;512;49;7;1627;31063;4;1734;435;47;8;673;15344;4;724;346;33;9;972;17443;4;1046;462;48
28.07.20;15:40:00;1;243;5184;0;2;1828;23344;4;1943;365;56;3;1168;15773;4;1251;477;51;4;1605;23114;5;1672;218;48;5;0;0;0;0;0;0;0;0;6;3287;44889;4;1706;1656;535;510;50;7;2266;30927;4;2399;438;48;8;981;15276;4;1049;419;40;9;1224;17362;4;1305;468;50
28.07.20;15:35:00;1;263;5163;0;2;1999;23191;4;2123;365;56;3;1079;15675;4;1160;467;51;4;1460;22980;5;1521;217;48;5;0;0;0;0;0;0;0;0;6;2393;44623;4;1268;1224;543;502;50;7;3021;30726;4;3180;429;49;8;1419;15194;4;1492;343;33;9;1674;17256;4;1779;469;50
28.07.20;15:30:00;1;222;5141;0;2;1422;23005;4;1521;362;57;3;907;15584;4;980;461;52;4;1222;22857;5;1272;214;50;5;0;0;0;0;0;0;0;0;6;2090;44380;4;1072;1058;530;507;50;7;1552;30463;4;1651;423;49;8;749;15060;4;803;413;40;9;832;17108;4;904;477;50
28.07.20;15:25:00;1;338;5123;0;2;1845;22885;4;1961;357;60;3;1356;15508;4;1443;444;53;4;1553;22754;5;1618;215;52;5;0;0;0;0;0;0;0;0;6;2325;44192;4;1177;1142;512;502;50;7;2683;30332;4;2826;422;50;8;1516;14996;4;1604;405;40;9;1345;17037;4;1434;460;52
28.07.20;15:20:00;1;438;5093;0;2;3568;22734;4;3782;354;62;3;2328;15399;4;2449;438;55;4;3067;22626;5;3194;206;53;5;0;0;0;0;0;0;0;0;6;4807;43981;4;2520;2408;542;524;50;7;4637;30104;4;4875;421;51;8;2271;14863;4;2384;406;41;9;2022;16926;4;2136;355;43
28.07.20;15:15:00;1;373;5059;0;2;4128;22461;4;4374;363;62;3;3241;15219;4;3409;450;55;4;4462;22388;5;4648;208;53;5;0;0;0;0;0;0;0;0;6;6861;43561;4;3596;3427;529;510;50;7;5292;29754;4;5570;416;51;8;2520;14691;4;2642;399;41;9;2695;16754;4;2845;455;54
28.07.20;15:10:00;1;504;5027;0;2;2644;22141;4;2810;385;62;3;1994;14954;4;2110;454;55;4;2599;22022;5;2707;215;53;5;0;0;0;0;0;0;0;0;6;2884;43040;4;1507;1431;504;502;50;7;2926;29313;4;3085;433;51;8;1551;14478;4;1637;409;41;9;2164;16521;4;2282;438;54
28.07.20;15:05:00;1;407;4987;0;2;3807;21901;4;4031;348;62;3;2330;14774;4;2462;446;55;4;3232;21796;5;3366;206;53;5;0;0;0;0;0;0;0;0;6;5315;42690;4;2756;2659;511;507;50;7;4539;29065;4;4781;406;51;8;2374;14341;4;2486;400;41;9;2859;16325;4;3009;456;55
28.07.20;15:00:00;1;370;4953;0;2;3787;21583;4;4010;363;63;3;2953;14578;4;3108;447;55;4;4186;21523;5;4360;210;54;5;0;0;0;0;0;0;0;0;6;4752;42232;4;2473;2419;495;494;51;7;4540;28684;4;4773;406;52;8;1501;14110;0;1572;255;27;9;2802;16085;4;2955;450;55
28.07.20;14:55:00;1;344;4922;0;2;4568;21269;4;4826;352;64;3;3081;14341;4;3233;431;56;4;4189;21174;5;4364;202;54;5;0;0;0;0;0;0;0;0;6;6483;41777;4;3383;3251;509;491;50;7;5417;28304;4;5700;397;52;8;2662;13976;4;2787;391;41;9;3020;15851;4;3181;446;55